Location: Kitchener-Waterloo
(43.4500°N, 80.5000°W)
Time: 11:15:59
(UTC-05:00)

ISS - All Passes

Search period start: 04 December 2016 00:00
Search period end: 14 December 2016 00:00
Orbit: 401 x 410 km, 51.6° (Epoch: 04 December)

Date Brightness Start Highest point End Pass type
(mag) Time Alt. Az. Time Alt. Az. Time Alt. Az.
04 Dec - 00:11:22 10° WNW 00:14:30 40° SW 00:17:37 10° SSE night (unlit)
04 Dec - 16:52:04 10° SSW 16:55:01 31° SE 16:57:59 10° ENE daylight
04 Dec - 18:28:19 10° W 18:31:27 40° NNW 18:34:37 10° NE visible
04 Dec - 20:06:03 10° NW 20:08:34 20° N 20:11:06 10° NE visible
04 Dec - 21:42:59 10° NW 21:45:51 26° NNE 21:48:43 10° ENE night (unlit)
04 Dec - 23:19:18 10° WNW 23:22:37 75° SW 23:25:55 10° SE night (unlit)
05 Dec - 16:00:57 10° S 16:03:14 18° SE 16:05:31 10° E daylight
05 Dec - 17:36:09 10° WSW 17:39:26 64° NNW 17:42:43 10° NE visible
05 Dec - 19:13:45 10° WNW 19:16:24 22° N 19:19:03 10° NE visible
05 Dec - 20:51:02 10° NW 20:53:41 22° N 20:56:21 10° ENE night (unlit)
05 Dec - 22:27:22 10° NW 22:30:39 63° NNE 22:33:56 10° ESE night (unlit)
06 Dec - 00:04:32 10° W 00:06:52 18° SW 00:09:11 10° S night (unlit)
06 Dec - 16:44:11 10° SW 16:47:28 74° SE 16:50:46 10° ENE daylight
06 Dec - 18:21:23 10° WNW 18:24:13 26° NNW 18:27:05 10° NE visible
06 Dec - 19:58:58 10° NW 20:01:29 20° N 20:04:00 10° NE visible
06 Dec - 21:35:27 10° NW 21:38:37 40° NNE 21:41:46 10° E night (unlit)
06 Dec - 23:12:04 10° WNW 23:15:04 32° SW 23:18:03 10° SSE night (unlit)
07 Dec - 15:52:27 10° SSW 15:55:33 39° SE 15:58:40 10° ENE daylight
07 Dec - 17:29:01 10° W 17:32:05 35° NNW 17:35:10 10° NE visible
07 Dec - 19:06:46 10° NW 19:09:16 19° N 19:11:45 10° NE visible
07 Dec - 20:43:33 10° NW 20:46:30 29° NNE 20:49:27 10° E night (unlit)
07 Dec - 22:19:54 10° WNW 22:23:10 59° SW 22:26:26 10° SE night (unlit)
08 Dec - 15:01:07 10° S 15:03:42 22° SE 15:06:19 10° E daylight
08 Dec - 16:36:46 10° WSW 16:40:00 52° NNW 16:43:15 10° NE daylight
08 Dec - 18:14:26 10° WNW 18:17:02 21° N 18:19:37 10° NE visible
08 Dec - 19:51:35 10° NW 19:54:19 23° NNE 19:57:03 10° ENE visible
08 Dec - 21:27:54 10° NW 21:31:12 78° NNE 21:34:31 10° ESE night (unlit)
08 Dec - 23:05:27 10° W 23:07:19 14° SW 23:09:11 10° SSW night (unlit)
09 Dec - 14:10:33 10° SSE 14:11:56 12° SE 14:13:19 10° ESE daylight
09 Dec - 15:44:40 10° WSW 15:47:57 88° NW 15:51:16 10° ENE daylight
09 Dec - 17:22:02 10° WNW 17:24:48 24° NNW 17:27:35 10° NE visible
09 Dec - 18:59:32 10° NW 19:02:05 20° N 19:04:39 10° ENE visible
09 Dec - 20:35:56 10° NW 20:39:09 47° NNE 20:42:22 10° ESE night (unlit)
09 Dec - 22:12:42 10° W 22:15:30 25° SW 22:18:18 10° SSE night (unlit)
10 Dec - 14:52:49 10° SW 14:55:59 50° SE 14:59:12 10° ENE daylight
10 Dec - 16:29:38 10° W 16:32:37 31° NNW 16:35:36 10° NE daylight
10 Dec - 18:07:21 10° NW 18:09:49 19° N 18:12:18 10° NE visible
10 Dec - 19:43:59 10° NW 19:47:02 32° NNE 19:50:03 10° E visible
10 Dec - 21:20:25 10° WNW 21:23:37 46° SW 21:26:48 10° SE night (unlit)
11 Dec - 14:01:15 10° SSW 14:04:04 27° SE 14:06:56 10° ENE daylight
11 Dec - 15:37:18 10° W 15:40:27 44° NNW 15:43:39 10° NE daylight
11 Dec - 17:15:01 10° NW 17:17:32 20° N 17:20:05 10° NE visible
11 Dec - 18:52:01 10° NW 18:54:49 25° NNE 18:57:37 10° ENE visible
11 Dec - 20:28:19 10° WNW 20:31:38 86° SW 20:34:56 10° SE night (unlit)
11 Dec - 22:06:33 10° WSW 22:07:38 11° SW 22:08:43 10° SSW night (unlit)
12 Dec - 13:10:14 10° S 13:12:14 15° SE 13:14:14 10° E daylight
12 Dec - 14:45:06 10° WSW 14:48:22 72° NNW 14:51:40 10° NE daylight
12 Dec - 16:22:36 10° WNW 16:25:17 22° NNW 16:27:58 10° NE daylight
12 Dec - 17:59:57 10° NW 18:02:33 21° N 18:05:11 10° ENE visible
12 Dec - 19:36:18 10° NW 19:39:34 56° NNE 19:42:49 10° ESE visible
12 Dec - 21:13:17 10° W 21:15:50 20° SW 21:18:21 10° S night (unlit)
13 Dec - 13:53:05 10° SW 13:56:20 64° SE 13:59:36 10° ENE daylight
13 Dec - 15:30:09 10° W 15:33:02 28° NNW 15:35:56 10° NE daylight
13 Dec - 17:07:47 10° NW 17:10:17 19° N 17:12:46 10° NE daylight
13 Dec - 18:44:19 10° NW 18:47:26 36° NNE 18:50:31 10° E visible
13 Dec - 20:20:50 10° WNW 20:23:56 37° SW 20:26:59 10° SSE visible
